Theta_e
281 284 285 284 284 284 280 281 278 281 282 285 286 288 289 289 291 290 289 289 289 288 288 289 291 293 294 294 294 296 297 296 297 297 296 296 296 296 296 295 294 294 293 292
277 282 282 283 284 284 284 284 283 283 281 287 287 289 289 288 288 287 287 288 288 288 288 288 289 291 293 293 294 294 295 296 297 296 296 295 295 294 293 293 292 291 291 291
274 279 280 277 280 283 284 284 284 282 285 288 288 290 287 285 286 286 286 287 288 288 288 288 289 291 291 293 294 294 294 295 296 295 295 294 293 292 291 290 290 290 289 290
272 277 270 280 283 284 284 284 285 285 285 286 287 286 285 285 284 285 287 287 288 288 289 290 290 291 292 293 293 294 294 295 295 295 294 293 291 291 289 288 289 288 288 289
273 271 277 279 282 283 282 282 284 284 283 284 285 284 283 285 286 285 286 288 288 289 289 289 289 290 290 291 292 293 293 293 294 294 293 291 290 289 288 287 287 287 287 287
277 273 272 278 284 287 286 278 283 284 283 283 285 281 283 285 286 287 287 288 288 288 289 289 290 290 289 290 291 292 293 294 294 294 293 292 291 289 287 287 287 286 287 286
280 273 278 282 286 286 276 278 283 283 283 283 282 283 284 286 287 287 287 287 288 288 287 289 290 289 288 289 290 293 293 293 293 293 293 293 289 287 287 287 286 285 287 288
280 278 273 283 285 280 282 282 284 283 283 283 283 285 285 286 286 286 286 287 287 287 288 289 290 288 289 288 292 292 292 291 291 291 291 290 288 287 286 287 288 288 289 288
280 279 282 281 282 283 284 284 282 282 283 283 283 283 284 285 285 285 286 286 287 286 287 287 288 288 288 289 292 293 290 290 289 289 288 288 287 289 287 287 288 288 287 287
281 280 280 281 282 283 283 283 283 283 283 284 282 283 283 284 284 284 285 286 286 287 285 285 287 287 288 289 291 292 292 292 289 287 287 287 289 289 289 288 288 287 287 286
280 280 280 283 283 283 283 283 283 283 283 283 282 282 282 282 283 283 284 285 285 284 284 284 285 286 288 290 290 289 292 292 290 289 288 286 285 288 289 290 291 288 288 288
280 282 281 281 283 284 282 281 282 281 282 282 281 282 282 282 283 283 283 284 283 283 284 283 284 284 287 289 290 289 289 291 292 291 290 289 288 288 293 293 294 294 293 290
281 281 282 282 283 282 280 281 280 281 281 280 281 281 281 281 282 285 284 283 283 283 284 284 283 283 285 287 288 287 286 287 290 291 290 289 288 287 287 289 294 293 294 293
281 281 279 281 279 281 279 280 282 280 280 280 280 280 280 280 281 281 282 283 283 283 283 284 283 283 285 286 285 286 286 288 288 291 291 290 288 288 288 287 287 288 293 293
279 280 279 280 279 278 278 279 278 278 278 278 279 279 279 278 278 279 281 282 283 282 282 283 283 283 285 284 283 283 286 286 287 288 291 291 289 288 288 287 287 287 286 290
281 279 278 277 277 277 276 276 276 277 277 278 277 277 277 278 278 279 280 281 280 280 282 283 283 284 284 284 283 283 286 287 288 287 288 288 288 287 287 286 286 286 286 286
274 274 276 274 277 276 276 277 277 277 278 278 278 278 277 277 277 277 277 279 280 281 281 283 283 284 283 283 282 284 285 285 286 286 286 287 288 287 287 286 286 286 286 287
278 279 278 277 275 276 277 278 278 278 277 278 278 276 274 273 274 275 277 278 278 280 282 284 284 283 282 282 283 285 284 284 284 284 285 285 286 287 287 286 286 286 286 286
278 279 279 279 277 277 276 275 275 276 276 276 275 275 275 274 275 275 277 277 277 278 280 284 285 284 282 282 284 284 283 282 282 283 284 285 285 286 287 286 286 286 286 286
279 279 279 277 278 277 276 276 276 275 276 276 276 275 275 275 277 277 277 276 278 280 283 282 282 282 282 283 285 283 281 281 282 283 284 284 284 284 286 287 287 286 286 286
276 275 276 278 277 277 277 276 275 274 276 276 276 276 276 277 277 277 275 276 279 280 282 284 282 283 283 283 283 282 281 281 282 282 281 281 283 283 284 286 286 286 286 286
272 271 271 271 273 274 276 276 275 275 275 275 276 276 276 276 277 277 278 277 280 284 283 282 282 283 283 285 283 283 282 281 280 281 280 281 282 283 283 285 285 285 285 285
273 272 273 272 273 273 272 273 275 275 274 274 275 275 275 276 277 276 276 278 278 281 283 282 282 284 284 283 281 280 279 278 279 280 281 281 282 283 283 284 285 285 285 284
272 272 271 273 267 268 270 273 273 275 274 275 275 276 275 275 276 276 278 281 283 282 282 283 282 284 284 280 279 278 278 279 279 279 280 283 282 281 278 277 278 280 281 283
270 269 267 268 271 273 273 274 273 273 274 275 276 277 277 277 276 278 277 277 280 281 280 282 283 282 279 278 278 278 278 278 279 278 278 279 278 277 276 276 278 279 280 281
272 273 273 273 273 274 275 275 274 275 276 276 277 277 278 279 277 278 276 278 277 279 281 279 279 278 278 277 278 278 278 278 278 277 277 277 277 277 276 277 278 279 279 280
269 276 272 272 273 273 274 275 274 274 276 275 274 276 278 277 276 277 277 275 275 277 278 279 279 279 279 279 278 278 278 277 277 276 276 276 276 275 276 277 277 277 278 279
Wind_Speed
5 5 3 1 1 3 3 4 4 5 6 7 8 7 5 5 5 6 6 7 7 7 6 6 7 9 9 8 7 6 6 5 5 3 3 3 4 5 5 5 5 5 6 6
5 6 6 3 4 2 3 2 3 5 1 1 4 6 5 4 5 6 6 6 7 7 8 7 7 7 8 9 8 7 7 7 5 5 5 5 6 6 6 6 5 5 5 6
3 5 4 4 2 2 1 0 2 4 4 6 4 5 4 4 6 6 6 7 10 10 8 8 9 8 8 9 8 7 7 6 7 6 6 6 5 6 6 6 5 5 5 5
2 5 3 4 2 2 1 2 3 2 4 5 4 4 5 5 5 6 6 6 5 5 7 7 8 9 8 6 8 8 8 7 6 6 7 6 6 6 5 5 6 5 6 6
3 1 5 2 2 1 1 2 1 5 3 5 3 3 0 2 3 2 4 5 6 6 7 7 8 8 9 9 7 8 9 7 6 7 7 7 8 7 5 5 5 5 4 6
1 3 3 2 1 2 0 5 1 4 3 2 2 2 3 3 5 6 6 6 7 7 6 6 8 7 8 9 8 9 9 10 7 6 8 10 8 9 5 4 5 4 4 4
3 1 6 3 3 3 3 4 2 3 3 2 1 2 3 6 6 5 5 7 7 7 7 9 9 6 9 10 10 10 9 9 7 6 7 8 7 6 6 6 5 5 6 4
2 2 6 2 2 3 2 2 2 2 2 1 2 5 5 6 6 7 7 7 6 6 8 7 9 5 8 8 11 10 10 7 6 6 4 4 7 5 6 7 7 6 5 4
7 5 1 1 1 1 2 4 3 2 1 1 3 3 5 5 6 6 7 6 6 7 7 7 9 5 10 12 12 10 9 7 6 6 4 4 5 6 5 7 6 6 5 5
2 1 2 2 1 1 2 3 2 2 3 3 3 4 4 5 5 4 5 5 6 5 8 9 8 9 8 12 12 13 10 9 5 4 4 3 3 4 5 6 6 6 6 5
4 4 2 6 5 3 3 2 2 1 2 2 3 4 4 5 5 5 5 4 5 5 8 10 11 11 11 12 11 11 10 7 5 3 4 4 4 6 7 7 9 7 6 6
5 3 2 3 3 4 3 1 2 2 4 4 3 6 5 6 6 6 8 6 6 6 8 10 10 11 11 12 11 11 11 8 6 4 4 4 4 4 12 11 15 13 11 9
2 3 2 3 4 3 1 1 2 3 4 5 5 5 5 6 5 11 7 8 7 8 10 9 9 10 10 10 11 12 12 11 8 7 4 5 4 5 6 6 13 13 15 15
2 3 1 2 1 2 1 3 4 4 4 4 5 4 4 6 8 8 9 9 9 9 10 11 11 11 10 8 9 11 12 17 9 8 6 5 6 6 5 6 6 5 14 13
2 2 2 3 3 1 2 3 5 6 5 6 4 6 6 7 8 9 10 10 10 10 10 11 11 13 11 6 7 10 9 8 8 9 7 7 5 5 6 6 6 5 2 7
4 3 3 1 2 3 2 4 4 6 5 5 7 7 7 7 8 10 10 9 8 10 11 11 13 13 11 10 9 8 8 13 13 8 7 6 5 5 5 6 6 5 5 6
3 2 1 3 3 5 4 5 5 7 8 8 8 8 7 8 9 10 9 7 8 12 11 11 15 12 12 11 8 8 5 7 15 8 6 7 6 6 6 6 6 6 6 6
3 2 3 5 4 4 6 5 6 7 6 8 7 7 7 6 9 11 10 8 8 11 8 10 11 10 10 9 9 8 6 7 8 7 6 7 6 6 6 6 6 6 5 6
3 5 5 6 6 6 6 6 6 7 9 8 8 10 9 9 8 8 8 8 9 12 10 10 14 14 9 10 13 5 5 7 9 8 7 9 7 6 6 6 6 6 6 5
5 4 6 6 6 6 6 6 7 7 9 7 9 9 11 11 9 8 7 10 10 10 10 10 9 10 10 10 14 5 6 8 8 8 6 6 6 6 6 9 7 6 6 6
6 6 7 7 7 6 6 7 6 7 9 7 8 11 12 12 9 8 7 7 8 8 10 14 8 8 5 8 8 6 7 8 8 5 7 6 7 7 6 7 7 6 6 6
4 5 7 6 5 9 8 7 6 8 8 7 9 10 10 12 11 10 9 10 8 13 10 7 6 10 9 15 6 6 5 4 5 6 8 7 6 6 6 6 6 5 5 6
5 4 6 6 7 7 6 8 9 8 8 7 9 11 10 9 8 9 9 5 5 9 10 6 10 15 16 8 2 3 5 5 6 6 7 6 6 6 5 5 5 5 5 5
5 5 5 5 4 4 7 7 6 7 6 9 10 10 8 8 8 5 8 12 16 14 10 8 10 14 15 2 3 4 5 4 5 5 5 8 3 2 1 1 1 1 2 3
4 5 4 5 6 6 6 7 6 7 7 9 10 9 8 6 6 8 7 7 15 12 9 11 12 11 3 3 4 4 3 3 4 2 3 3 2 1 1 2 1 1 3 3
5 5 6 6 5 5 6 7 7 7 7 7 6 7 8 7 6 8 7 10 7 10 7 3 3 3 2 3 3 3 3 3 3 3 4 3 3 2 2 2 3 3 3 2
3 9 3 5 4 6 7 9 9 9 9 8 10 9 7 8 8 10 11 7 6 6 5 3 2 3 3 2 2 2 2 3 5 2 3 3 3 3 3 3 3 3 3 3
Wind_Direction
20 11 349 332 171 165 101 166 128 205 161 191 186 165 134 120 95 70 48 36 24 15 2 357 351 346 345 342 339 332 320 304 259 214 211 177 152 145 136 134 132 136 128 127
1 6 18 22 11 23 13 90 78 108 214 110 86 94 93 88 73 50 34 23 6 359 358 354 340 329 326 327 329 332 311 280 264 234 203 196 176 162 151 142 138 142 146 149
305 347 347 352 280 215 225 173 108 160 236 156 158 149 138 88 56 38 18 5 358 346 335 332 332 327 319 317 311 307 292 268 244 215 210 198 185 163 168 161 149 162 155 150
205 358 30 250 315 286 323 18 4 42 28 65 91 93 97 66 58 21 359 342 323 307 320 324 317 314 307 308 303 302 294 277 244 211 204 184 177 181 168 156 169 170 174 175
96 186 284 58 337 38 56 322 120 125 89 46 79 89 203 97 22 334 310 303 299 302 307 313 310 311 312 312 298 299 300 283 253 212 199 186 190 180 173 161 172 184 176 174
77 100 243 240 291 352 161 297 97 124 99 82 130 63 280 339 337 330 324 313 310 309 307 307 312 312 315 311 311 304 306 302 273 225 199 195 192 178 163 164 178 162 162 183
129 246 289 276 304 313 96 247 131 121 124 84 76 190 316 335 338 321 316 318 315 320 312 303 307 322 319 315 313 307 300 297 291 241 222 207 169 163 159 163 153 166 174 179
75 233 288 26 322 184 205 38 111 82 83 33 324 317 320 321 318 319 313 318 316 316 307 306 314 322 318 313 308 308 306 300 295 277 239 188 170 158 160 158 170 180 172 180
179 219 307 350 223 263 182 152 156 132 79 15 304 303 310 301 308 309 315 313 326 312 322 326 317 333 322 317 318 321 315 307 305 297 257 186 167 174 157 171 177 183 184 190
39 176 219 191 225 109 52 95 111 131 185 199 232 266 271 272 275 280 282 310 305 320 319 315 322 323 311 315 319 317 318 313 309 291 262 212 178 172 178 181 187 186 190 200
259 250 288 242 227 168 128 126 159 212 214 275 326 315 291 294 295 288 296 293 298 331 317 318 320 317 319 320 314 312 319 309 289 263 261 232 215 196 199 205 198 188 198 195
220 207 167 249 169 149 140 291 339 334 327 321 288 292 296 292 291 299 306 304 308 300 306 309 309 310 314 316 324 329 317 317 307 266 224 219 212 215 224 216 213 215 201 194
237 151 167 86 133 128 74 7 345 309 279 290 290 289 298 298 293 301 302 294 287 292 296 298 296 300 307 311 321 316 314 312 307 289 241 223 207 209 225 230 228 226 224 219
92 120 91 178 171 155 329 325 314 290 296 283 288 306 290 281 293 293 290 289 290 295 300 306 305 295 298 299 308 302 304 304 300 293 253 235 220 214 212 209 213 221 227 224
113 78 143 121 95 30 355 330 320 310 296 302 278 257 280 296 295 294 294 294 293 291 286 283 282 285 296 274 283 291 296 297 297 293 282 254 231 216 216 211 212 214 169 227
157 135 152 152 291 309 311 309 287 292 292 276 278 296 284 273 279 282 284 285 289 291 292 292 293 294 296 291 277 283 281 290 298 294 294 259 232 223 221 218 215 210 206 215
85 312 331 306 297 309 297 288 266 264 271 283 284 283 288 290 293 287 283 272 263 276 284 280 297 294 288 288 275 278 280 289 291 291 290 284 247 225 227 221 219 215 221 205
175 205 232 225 240 274 293 275 269 278 275 268 275 281 274 267 264 281 287 296 291 285 277 286 300 281 280 277 273 267 272 281 288 284 284 283 279 244 222 219 217 217 220 210
219 247 254 250 246 253 261 271 283 278 286 285 284 279 271 266 268 271 280 286 283 286 298 308 292 290 280 277 288 262 262 273 283 281 273 277 277 280 241 222 222 220 214 205
270 256 256 259 253 231 260 256 265 274 276 274 275 276 276 269 262 264 268 269 262 264 292 297 292 286 276 275 282 269 262 267 265 269 268 272 271 271 267 237 227 221 212 207
271 265 262 258 267 272 251 258 262 270 283 283 275 276 277 275 266 260 272 278 274 267 292 301 295 291 281 284 278 261 262 264 261 269 283 274 276 267 269 259 244 223 216 209
268 264 268 266 261 276 278 275 274 277 276 278 283 280 280 276 274 264 239 248 281 290 306 293 285 287 289 288 281 262 265 285 278 276 275 268 263 262 262 260 245 222 211 206
283 259 275 276 269 265 287 285 280 272 272 277 282 286 284 281 280 279 285 265 264 288 302 294 285 301 307 307 298 290 279 273 270 268 265 263 262 253 254 257 241 221 204 196
307 313 285 283 287 282 288 292 283 285 268 278 277 275 278 293 292 249 260 277 287 293 287 290 293 305 317 302 291 289 281 281 285 281 279 288 264 268 267 283 283 202 148 169
309 292 285 307 311 309 299 304 299 289 283 283 282 286 278 266 258 296 291 287 292 300 295 286 296 313 311 287 297 295 304 307 304 300 325 323 331 19 20 23 42 79 69 83
339 327 311 308 304 311 313 310 297 298 299 294 291 304 303 295 291 300 287 287 285 291 288 259 265 273 271 277 287 318 324 335 345 337 353 350 7 18 20 22 30 51 66 77
325 342 317 330 321 327 318 323 326 319 321 324 309 304 318 316 307 311 308 300 293 289 275 264 264 296 298 313 327 333 350 5 357 12 1 12 19 19 23 25 35 35 48 64